Regional Weather Roundup
Issued by NWS

Home | Current Version | Previous Version | Text Only | Print | Product List | Glossary On
Versions: 1 2 3 4 5 6 7 8 9 10 11 12 13 14 15 16 17 18 19 20 21 22 23 24 25 26 27 28 29 30 31 32 33 34 35 36 37 38 39 40 41 42 43 44 45 46 47 48 49 50
000
ASUS43 KMPX 211501
RWRMN
WEATHER ROUNDUP FOR MINNESOTA
NATIONAL WEATHER SERVICE TWIN CITIES/CHANHASSEN MN
1000 AM CDT TUE APR 21 2015


NOTE: "FAIR" INDICATES FEW OR NO CLOUDS BELOW 12,000 FEET WITH NO
SIGNIFICANT WEATHER AND/OR OBSTRUCTIONS TO VISIBILITY. N/A MEANS
CURRENT SKY AND/OR WEATHER CONDITIONS ARE NOT AVAILABLE.

MNZ060>063-068>070-211600-
   Twin Cities Metro

CITY           SKY/WX    TMP DP  RH WIND       PRES   REMARKS
TWIN CITIES    CLOUDY    37  25  61 W21G31    29.56S
ST PAUL        FLURRIES  38  27  64 NW17G29   29.56S
CRYSTAL        CLOUDY    38  27  64 W20G31    29.55R
BLAINE         PTSUNNY   39  27  60 NW25G31   29.53F
LAKEVILLE      CLOUDY    36  27  69 W20G29    29.57R
EDEN PRAIRIE   LGT RAIN  38  25  59 W23G33    29.56S
SOUTH ST PAUL  CLOUDY    38  25  61 W13G32    29.56R
LAKE ELMO      CLOUDY    37  28  70 NW17G25   29.55S
$$
MNZ001>005-007-008-013>017-022>024-027-028-211600-
   Northwest Minnesota

CITY           SKY/WX    TMP DP  RH WIND       PRES   REMARKS
BEMIDJI        LGT SNOW  29  24  79 NW24      29.55R WCI  15
HALLOCK        PTSUNNY   30  25  80 N32G46    29.73R WCI  15
ROSEAU         LGT SNOW  28  23  80 N26G33    29.64R WCI  13
WARROAD        LGT SNOW  28  25  86 N18G30    29.62R WCI  16
THIEF RVR FALL CLOUDY    30  23  74 NW24G32   29.66R WCI  16
CROOKSTON      PTSUNNY   32  27  80 N37G44    29.70R WCI  16
FOSSTON        LGT SNOW  28  25  86 NW18G26   29.63R WCI  16
DETROIT LAKES  MIX PCPN  32  28  86 N28G38    29.64R WCI  18
MOORHEAD       CLOUDY    36  27  69 NW32G39   29.71S
PARK RAPIDS    CLOUDY    33  24  69 NW21G33   29.55R WCI  21
MAHNOMEN       FLURRIES  30  26  86 NW28G35   29.63R WCI  15
$$
MNZ006-009>011-018-025>026-211600-
   North Central Minnesota

CITY           SKY/WX    TMP DP  RH WIND       PRES   REMARKS
BAUDETTE       LGT SNOW  28  22  78 N16G32    29.56R WCI  16
FLAG ISLAND    LGT SNOW  27  23  86 N26G35    29.60R WCI  11
INTL FALLS     LGT SNOW  26  21  81 N20G26    29.49R VSB 3/4 WCI  12
WASKISH        CLOUDY    28  25  86 NW17G25   29.55R WCI  16
BIG FORK       LGT SNOW  30  25  80 NW10G17   29.48S WCI  21
LONGVILLE      CLOUDY    32  21  64 NW13G25   29.52R WCI  22
GRAND RAPIDS   CLOUDY    30  21  69 NW24G30   29.47R WCI  16
ORR            MIX PCPN  27  21  80 NW13G22   29.42R WCI  16
COOK           CLOUDY    28  23  80 NW12G18   29.44R HAZE    WCI  18
$$
MNZ012-019>021-037-211600-
   Northeast Minnesota

CITY           SKY/WX    TMP DP  RH WIND       PRES   REMARKS
DULUTH         FLURRIES  33  25  72 NW14G23   29.39R WCI  23
ELY            CLOUDY    27  21  80 NW18G24   29.38R HAZE    WCI  13
HIBBING        MIX PCPN  30  21  69 NW20G25   29.43S WCI  17
EVELETH        MIX PCPN  30  23  74 NW14G24   29.43R WCI  20
DULUTH HARBOR  MIX PCPN  34  30  86 NW17      29.44R WCI  23
TWO HARBORS    LGT SNOW  37  27  65 NW12G20   29.37R
SILVER BAY     FLURRIES  36  25  64 NW10G20   29.35R
GRAND MARAIS     N/A     37  24  59 VRB3      29.33R
G MARAIS ARPRT LGT SNOW  28  19  69 NW14G22   29.28R WCI  17
$$
MNZ029>031-032-039>041-046>048-054>057-064-211600-
   West Central Minnesota

CITY           SKY/WX    TMP DP  RH WIND       PRES   REMARKS
FERGUS FALLS   CLOUDY    34  25  69 N28G38    29.69R WCI  20
WHEATON        CLOUDY    34  25  69 NW23G30   29.74R WCI  22
MORRIS         CLOUDY    36  27  69 NW32G40   29.67R
ALEXANDRIA     CLOUDY    33  24  69 NW26G41   29.62R WCI  20
ELBOW LAKE     CLOUDY    33  27  80 NW31G41   29.66R WCI  18
WADENA         DRIZZLE   30  23  74 NW18G37   29.58R WCI  18
GLENWOOD       PTSUNNY   34  27  75 NW26G37   29.62R WCI  21
APPLETON       SUNNY     37  25  60 NW31G41   29.71R
BENSON         LGT SNOW  34  28  80 N22G37    29.68R WCI  22
ORTONVILLE     CLOUDY    36  25  64 NW26G39   29.71S
MADISON        CLOUDY    37  27  65 NW21G30   29.72R
WILLMAR        FAIR      36  30  80 NW24G35   29.65S
$$
MNZ033>034-036-042>043-049>051-058-059-211600-
   Central Minnesota

CITY           SKY/WX    TMP DP  RH WIND       PRES   REMARKS
ST CLOUD       CLOUDY    36  22  56 NW23G38   29.56R
SAUK CENTRE    CLOUDY    34  24  67 NW28G36   29.59R WCI  20
PAYNESVILLE    CLOUDY    32  27  83 W17G29    29.61R HAZE    WCI  21
AITKIN         LGT SNOW  34  27  75 NW9G17    29.49R VSB 1   WCI  26
PINE RIVER     FLURRIES  32  25  74 NW16G26   29.57R WCI  21
BRAINERD       CLOUDY    33  24  69 NW20G28   29.53S WCI  21
STAPLES        LGT RAIN  28  27  93 NW12G21   29.57R WCI  18
LONG PRAIRIE   CLOUDY    32  25  74 W25G35    29.59R WCI  19
LITTLE FALLS   CLOUDY    34  23  64 NW18G24   29.56R WCI  23
LITCHFIELD     CLOUDY    37  28  70 NW22G30   29.61R
BUFFALO        CLOUDY    35  28  76 W13G22    29.59R WCI  26
MAPLE LAKE     CLOUDY    36  31  83 NW17      29.59R HAZE
$$
MNZ037-044-045-052-053-211600-
   East Central Minnesota

CITY           SKY/WX    TMP DP  RH WIND       PRES   REMARKS
PRINCETON      CLOUDY    39  27  60 W18G28    29.54R
MORA           LGT SNOW  34  25  69 NW21G30   29.52S WCI  22
CAMBRIDGE      CLOUDY    37  27  65 W15G24    29.51S
RUSH CITY      CLOUDY    37  28  69 W16G23    29.51S
MOOSE LAKE     CLOUDY    34  23  64 NW17G25   29.45R WCI  23
HINCKLEY       LGT SNOW  34  30  86 NW9G17    29.49R WCI  26
CLOQUET        CLOUDY    34  23  64 NW20G30   29.42S WCI  22
MCGREGOR       PTSUNNY   32  25  74 NW18G31   29.48S WCI  20
$$
MNZ071>073-080-081-089-090-097-098-211600-
   Southwest Minnesota

CITY           SKY/WX    TMP DP  RH WIND       PRES   REMARKS
MONTEVIDEO     CLOUDY    37  27  65 N23G36    29.70R
GRANITE FALLS  CLOUDY    36  27  70 W25G31    29.72R
CANBY          CLOUDY    37  26  64 NW20G30   29.74R
MARSHALL       CLOUDY    37  21  52 NW30G36   29.71S
REDWOOD FALLS  CLOUDY    38  26  62 NW22G32   29.67S
OLIVIA         CLOUDY    34  30  86 NW22G31   29.66R WCI  22
PIPESTONE      CLOUDY    36  23  60 NW22G28   29.75R
WINDOM         PTSUNNY   37  25  60 NW24G37   29.70R
WORTHINGTON    CLOUDY    37  23  56 NW29G36   29.75R
JACKSON        PTSUNNY   39  23  52 NW30G40   29.71R
TRACY          CLOUDY    38  26  60 NW25G35   29.72S
SLAYTON        PTSUNNY   38  23  56 NW30G37   29.72S
$$
MNZ065>067-074>077-082>085-091>093-211600-
   South Central Minnesota

CITY           SKY/WX    TMP DP  RH WIND       PRES   REMARKS
MANKATO        CLOUDY    36  25  64 NW23G31   29.64R
NEW ULM        CLOUDY    37  25  60 NW28G35   29.66R
ST JAMES       CLOUDY    37  25  60 W30G38    29.69R
FAIRMONT       PTSUNNY   39  25  56 NW28G36   29.68R
GLENCOE        CLOUDY    38  30  73 W23G29    29.60S
FARIBAULT      CLOUDY    37  28  70 W22G29    29.59F
OWATONNA       PTSUNNY   37  27  65 W24G31    29.61S
WASECA         CLOUDY    34  27  75 W23G32    29.63F WCI  22
ALBERT LEA     CLOUDY    36  27  69 W18G26    29.63S
$$
MNZ078>079-086>088-094>096-211600-
   Southeast Minnesota

CITY           SKY/WX    TMP DP  RH WIND       PRES   REMARKS
ROCHESTER      CLOUDY    34  26  72 NW22G30   29.58R WCI  22
RED WING       CLOUDY    39  25  56 NW17G26   29.55R
STANTON        CLOUDY    37  27  65 W22G29    29.57S
DODGE CENTER   CLOUDY    36  28  75 W24       29.58S
WINONA         CLOUDY    37  27  65 W14G22    29.56S
AUSTIN         CLOUDY    36  25  64 NW20G31   29.61S
PRESTON        CLOUDY    33  26  76 NW22G32   29.59R WCI  21
$$
ABBREVIATIONS USED IN REMARKS
   TC - TEMPERATURES IN CELSIUS
  WCI - WIND CHILL INDEX
   HX - HEAT INDEX
  VSB - VISIBILITY
$$



USA.gov is the U.S. government's official web portal to all federal, state and local government web resources and services.